| time (UTC) | temp C | wind direction | speed KPH | gust KPH | rain 1hr cm | rain 24hr cm | rain mn cm | humidity % | barometer mb |
| 20260902044008 | 15 | 205 | 0.0 | 6.4 | 0.00 | 0.00 | 0.00 | 89 | 1010.7 |
| 20260902043507 | 15 | 200 | 1.6 | 6.4 | 0.00 | 0.00 | 0.00 | 90 | 1010.7 |
| 20260902043013 | 15 | 98 | 0.0 | 0.0 | 0.00 | 0.00 | 0.00 | 90 | 1010.7 |
| 20260902042509 | 15 | 98 | 0.0 | 0.0 | 0.00 | 0.00 | 0.00 | 89 | 1010.7 |
| 20260902042009 | 15 | 98 | 0.0 | 0.0 | 0.00 | 0.00 | 0.00 | 89 | 1010.7 |
| 20260902041517 | 15 | 98 | 0.0 | 0.0 | 0.00 | 0.00 | 0.00 | 89 | 1010.7 |
| 20260902041010 | 15 | 98 | 0.0 | 0.0 | 0.00 | 0.00 | 0.00 | 90 | 1010.7 |
| 20260902040513 | 15 | 98 | 0.0 | 1.6 | 0.00 | 0.00 | 0.00 | 89 | 1010.7 |
| 20260902040015 | 15 | 98 | 0.0 | 1.6 | 0.00 | 0.00 | 0.00 | 89 | 1010.8 |
| 20260902035509 | 15 | 84 | 0.0 | 3.2 | 0.00 | 0.00 | 0.00 | 90 | 1010.7 |
| 20260902035010 | 15 | 84 | 0.0 | 3.2 | 0.00 | 0.00 | 0.00 | 90 | 1010.8 |
| 20260902034518 | 15 | 86 | 0.0 | 0.0 | 0.00 | 0.00 | 0.00 | 90 | 1010.7 |
| 20260902034011 | 15 | 163 | 0.0 | 0.0 | 0.00 | 0.00 | 0.00 | 90 | 1010.7 |
| 20260902033510 | 15 | 170 | 0.0 | 0.0 | 0.00 | 0.00 | 0.00 | 90 | 1010.7 |
| 20260902033030 | 15 | 170 | 0.0 | 0.0 | 0.00 | 0.00 | 0.00 | 90 | 1010.6 |
| 20260902032509 | 15 | 172 | 0.0 | 0.0 | 0.00 | 0.00 | 0.00 | 90 | 1010.6 |
| 20260902032011 | 15 | 183 | 0.0 | 0.0 | 0.00 | 0.00 | 0.00 | 90 | 1010.6 |
| 20260902031518 | 15 | 186 | 0.0 | 0.0 | 0.00 | 0.00 | 0.00 | 90 | 1010.6 |
| 20260902031009 | 15 | 219 | 0.0 | 4.8 | 0.00 | 0.00 | 0.00 | 89 | 1010.5 |
| 20260902030509 | 15 | 184 | 0.0 | 4.8 | 0.00 | 0.00 | 0.00 | 89 | 1010.4 |
| 20260902030019 | 15 | 160 | 0.0 | 4.8 | 0.00 | 0.00 | 0.00 | 88 | 1010.4 |
| 20260902025512 | 15 | 202 | 1.6 | 6.4 | 0.00 | 0.00 | 0.00 | 88 | 1010.4 |
| 20260902025010 | 15 | 213 | 0.0 | 6.4 | 0.00 | 0.00 | 0.00 | 87 | 1010.4 |
| 20260902024523 | 15 | 199 | 1.6 | 12.9 | 0.00 | 0.00 | 0.00 | 86 | 1010.4 |
| 20260902024012 | 15 | 216 | 3.2 | 12.9 | 0.00 | 0.00 | 0.00 | 84 | 1010.5 |
| 20260902023511 | 16 | 188 | 3.2 | 12.9 | 0.00 | 0.00 | 0.00 | 81 | 1010.5 |
| 20260902023025 | 16 | 191 | 3.2 | 9.7 | 0.00 | 0.00 | 0.00 | 78 | 1010.6 |
| 20260902022514 | 16 | 221 | 3.2 | 14.5 | 0.00 | 0.00 | 0.00 | 76 | 1010.4 |
| 20260902022012 | 16 | 200 | 3.2 | 14.5 | 0.00 | 0.00 | 0.00 | 78 | 1010.2 |
| 20260902021529 | 17 | 214 | 1.6 | 11.3 | 0.00 | 0.00 | 0.00 | 79 | 1010.2 |
| 20260902021012 | 17 | 215 | 1.6 | 4.8 | 0.00 | 0.00 | 0.00 | 78 | 1010.2 |
| 20260902020511 | 17 | 333 | 0.0 | 4.8 | 0.00 | 0.00 | 0.00 | 78 | 1010.2 |
| 20260902020022 | 17 | 236 | 0.0 | 11.3 | 0.00 | 0.00 | 0.00 | 78 | 1010.2 |
| 20260902015514 | 17 | 227 | 1.6 | 11.3 | 0.00 | 0.00 | 0.00 | 78 | 1010.2 |
| 20260902015012 | 17 | 198 | 3.2 | 11.3 | 0.00 | 0.00 | 0.00 | 78 | 1010.2 |
| 20260902014534 | 17 | 209 | 1.6 | 8.0 | 0.00 | 0.00 | 0.00 | 78 | 1010.2 |
| 20260902014017 | 17 | 192 | 1.6 | 6.4 | 0.00 | 0.00 | 0.00 | 78 | 1010.2 |
| 20260902013514 | 17 | 188 | 1.6 | 9.7 | 0.00 | 0.00 | 0.00 | 77 | 1010.1 |
| 20260902013026 | 17 | 211 | 3.2 | 9.7 | 0.00 | 0.00 | 0.00 | 77 | 1010.1 |
| 20260902012512 | 17 | 246 | 0.0 | 6.4 | 0.00 | 0.00 | 0.00 | 77 | 1010.1 |
| 20260902012011 | 17 | 204 | 1.6 | 3.2 | 0.00 | 0.00 | 0.00 | 77 | 1010.1 |
| 20260902011534 | 17 | 216 | 1.6 | 4.8 | 0.00 | 0.00 | 0.00 | 77 | 1010.1 |
| 20260902011015 | 17 | 230 | 0.0 | 8.0 | 0.00 | 0.00 | 0.00 | 77 | 1010.2 |
| 20260902010513 | 17 | 331 | 3.2 | 12.9 | 0.00 | 0.00 | 0.00 | 78 | 1010.2 |
| 20260902010041 | 17 | 180 | 3.2 | 12.9 | 0.00 | 0.00 | 0.00 | 78 | 1010.2 |
| 20260902005512 | 17 | 211 | 1.6 | 8.0 | 0.00 | 0.00 | 0.00 | 78 | 1010.2 |
| 20260902005013 | 17 | 169 | 3.2 | 9.7 | 0.00 | 0.00 | 0.00 | 78 | 1010.2 |
| 20260902004529 | 17 | 207 | 3.2 | 11.3 | 0.00 | 0.00 | 0.00 | 77 | 1010.3 |
| 20260902004016 | 17 | 205 | 3.2 | 11.3 | 0.00 | 0.00 | 0.00 | 76 | 1010.2 |
| 20260902003515 | 17 | 183 | 4.8 | 11.3 | 0.00 | 0.00 | 0.00 | 76 | 1010.2 |
| 20260902003029 | 17 | 215 | 1.6 | 6.4 | 0.00 | 0.00 | 0.00 | 76 | 1010.2 |
| 20260902002504 | 17 | 214 | 1.6 | 11.3 | 0.00 | 0.00 | 0.00 | 75 | 1010.2 |
| 20260902002006 | 17 | 148 | 0.0 | 11.3 | 0.00 | 0.00 | 0.00 | 77 | 1010.3 |
| 20260902001512 | 17 | 159 | 0.0 | 11.3 | 0.00 | 0.00 | 0.00 | 78 | 1010.3 |
| 20260902001005 | 17 | 204 | 4.8 | 9.7 | 0.00 | 0.00 | 0.00 | 78 | 1010.2 |
| 20260902000511 | 17 | 180 | 3.2 | 11.3 | 0.00 | 0.00 | 0.00 | 78 | 1010.3 |
| 20260902000012 | 17 | 207 | 4.8 | 12.9 | 0.00 | 0.00 | 0.00 | 78 | 1010.2 |
| 20260901235512 | 17 | 192 | 4.8 | 12.9 | 0.00 | 0.00 | 0.00 | 78 | 1010.2 |
| 20260901235001 | 17 | 204 | 4.8 | 11.3 | 0.00 | 0.00 | 0.00 | 76 | 1010.3 |
| 20260901234503 | 17 | 214 | 1.6 | 9.7 | 0.00 | 0.00 | 0.00 | 76 | 1010.3 |
| 20260901234001 | 17 | 215 | 1.6 | 8.0 | 0.00 | 0.00 | 0.00 | 75 | 1010.2 |
| 20260901233501 | 17 | 192 | 1.6 | 11.3 | 0.00 | 0.00 | 0.00 | 75 | 1010.2 |
| 20260901233004 | 17 | 215 | 3.2 | 12.9 | 0.00 | 0.00 | 0.00 | 75 | 1010.2 |
| 20260901232502 | 17 | 214 | 3.2 | 12.9 | 0.00 | 0.00 | 0.00 | 75 | 1010.2 |
| 20260901232008 | 17 | 200 | 3.2 | 8.0 | 0.00 | 0.00 | 0.00 | 75 | 1010.2 |
| 20260901231510 | 18 | 171 | 1.6 | 8.0 | 0.00 | 0.00 | 0.00 | 75 | 1010.2 |
| 20260901231005 | 17 | 186 | 1.6 | 8.0 | 0.00 | 0.00 | 0.00 | 77 | 1010.2 |
| 20260901230505 | 17 | 204 | 1.6 | 11.3 | 0.00 | 0.00 | 0.00 | 77 | 1010.2 |
| 20260901230010 | 17 | 214 | 6.4 | 11.3 | 0.00 | 0.00 | 0.00 | 77 | 1010.2 |
| 20260901225509 | 17 | 234 | 3.2 | 12.9 | 0.00 | 0.00 | 0.00 | 77 | 1010.3 |
| 20260901225013 | 17 | 228 | 3.2 | 12.9 | 0.00 | 0.00 | 0.00 | 77 | 1010.3 |
| 20260901224525 | 17 | 165 | 3.2 | 11.3 | 0.00 | 0.00 | 0.00 | 76 | 1010.3 |
| 20260901224012 | 17 | 193 | 1.6 | 11.3 | 0.00 | 0.00 | 0.00 | 76 | 1010.2 |
| 20260901223502 | 17 | 223 | 6.4 | 11.3 | 0.00 | 0.00 | 0.00 | 75 | 1010.3 |
| 20260901223001 | 17 | 197 | 3.2 | 9.7 | 0.00 | 0.00 | 0.00 | 74 | 1010.3 |
| 20260901222507 | 17 | 219 | 1.6 | 9.7 | 0.00 | 0.00 | 0.00 | 74 | 1010.3 |
| 20260901222004 | 18 | 202 | 1.6 | 6.4 | 0.00 | 0.00 | 0.00 | 73 | 1010.4 |
| 20260901221516 | 18 | 164 | 1.6 | 6.4 | 0.00 | 0.00 | 0.00 | 74 | 1010.4 |
| 20260901221006 | 17 | 205 | 1.6 | 9.7 | 0.00 | 0.00 | 0.00 | 75 | 1010.4 |
| 20260901220505 | 17 | 197 | 1.6 | 8.0 | 0.00 | 0.00 | 0.00 | 75 | 1010.5 |
| 20260901220010 | 17 | 198 | 3.2 | 6.4 | 0.00 | 0.00 | 0.00 | 74 | 1010.4 |
| 20260901215505 | 17 | 194 | 1.6 | 3.2 | 0.00 | 0.00 | 0.00 | 74 | 1010.4 |
| 20260901215010 | 18 | 232 | 0.0 | 3.2 | 0.00 | 0.00 | 0.00 | 73 | 1010.4 |
| 20260901214514 | 18 | 257 | 1.6 | 3.2 | 0.00 | 0.00 | 0.00 | 73 | 1010.4 |
| 20260901214009 | 18 | 155 | 1.6 | 4.8 | 0.00 | 0.00 | 0.00 | 73 | 1010.4 |
| 20260901213513 | 18 | 216 | 1.6 | 8.0 | 0.00 | 0.00 | 0.00 | 72 | 1010.4 |
| 20260901213022 | 18 | 268 | 1.6 | 8.0 | 0.00 | 0.00 | 0.00 | 72 | 1010.4 |
| 20260901212513 | 18 | 236 | 0.0 | 4.8 | 0.00 | 0.00 | 0.00 | 72 | 1010.4 |
| 20260901212001 | 18 | 220 | 1.6 | 4.8 | 0.00 | 0.00 | 0.00 | 72 | 1010.4 |
| 20260901211509 | 18 | 229 | 1.6 | 6.4 | 0.00 | 0.00 | 0.00 | 73 | 1010.4 |
| 20260901211004 | 18 | 211 | 1.6 | 6.4 | 0.00 | 0.00 | 0.00 | 72 | 1010.4 |
| 20260901210506 | 18 | 266 | 1.6 | 6.4 | 0.00 | 0.00 | 0.00 | 72 | 1010.5 |
| 20260901210006 | 18 | 131 | 1.6 | 11.3 | 0.00 | 0.00 | 0.00 | 73 | 1010.6 |
| 20260901205506 | 18 | 229 | 1.6 | 11.3 | 0.00 | 0.00 | 0.00 | 73 | 1010.6 |
| 20260901205006 | 18 | 194 | 0.0 | 4.8 | 0.00 | 0.00 | 0.00 | 74 | 1010.6 |
| 20260901204515 | 17 | 215 | 3.2 | 8.0 | 0.00 | 0.00 | 0.00 | 73 | 1010.6 |
| 20260901204010 | 17 | 182 | 3.2 | 9.7 | 0.00 | 0.00 | 0.00 | 74 | 1010.7 |
| 20260901203510 | 17 | 208 | 1.6 | 9.7 | 0.00 | 0.00 | 0.00 | 73 | 1010.7 |
| 20260901203023 | 18 | 186 | 3.2 | 9.7 | 0.00 | 0.00 | 0.00 | 73 | 1010.7 |
| 20260901202514 | 18 | 332 | 1.6 | 9.7 | 0.00 | 0.00 | 0.00 | 72 | 1010.7 |
| 20260901202012 | 18 | 195 | 1.6 | 9.7 | 0.00 | 0.00 | 0.00 | 73 | 1010.6 |
| 20260901201524 | 18 | 248 | 1.6 | 8.0 | 0.00 | 0.00 | 0.00 | 73 | 1010.7 |
| 20260901201012 | 17 | 206 | 1.6 | 6.4 | 0.00 | 0.00 | 0.00 | 73 | 1010.7 |
| 20260901200506 | 17 | 158 | 1.6 | 8.0 | 0.00 | 0.00 | 0.00 | 73 | 1010.8 |
| 20260901200016 | 17 | 188 | 3.2 | 8.0 | 0.00 | 0.00 | 0.00 | 73 | 1010.7 |
| 20260901195506 | 18 | 190 | 1.6 | 4.8 | 0.00 | 0.00 | 0.00 | 72 | 1010.8 |
| 20260901195007 | 18 | 205 | 1.6 | 6.4 | 0.00 | 0.00 | 0.00 | 72 | 1010.7 |
| 20260901194508 | 18 | 177 | 1.6 | 6.4 | 0.00 | 0.00 | 0.00 | 71 | 1010.7 |
| 20260901194009 | 18 | 221 | 0.0 | 6.4 | 0.00 | 0.00 | 0.00 | 70 | 1010.7 |
| 20260901193510 | 18 | 200 | 0.0 | 6.4 | 0.00 | 0.00 | 0.00 | 71 | 1010.7 |
| 20260901193016 | 18 | 205 | 0.0 | 4.8 | 0.00 | 0.00 | 0.00 | 71 | 1010.7 |
| 20260901192514 | 18 | 238 | 0.0 | 11.3 | 0.00 | 0.00 | 0.00 | 70 | 1010.7 |
| 20260901192014 | 18 | 234 | 1.6 | 11.3 | 0.00 | 0.00 | 0.00 | 72 | 1010.7 |
| 20260901191526 | 18 | 215 | 1.6 | 8.0 | 0.00 | 0.00 | 0.00 | 72 | 1010.7 |
| 20260901191021 | 18 | 215 | 0.0 | 8.0 | 0.00 | 0.00 | 0.00 | 73 | 1010.7 |
| 20260901190514 | 18 | 225 | 1.6 | 8.0 | 0.00 | 0.00 | 0.00 | 73 | 1010.8 |
| 20260901190033 | 18 | 309 | 1.6 | 8.0 | 0.00 | 0.00 | 0.00 | 73 | 1010.8 |
| 20260901185516 | 18 | 206 | 1.6 | 6.4 | 0.00 | 0.00 | 0.00 | 74 | 1010.9 |
| 20260901185005 | 17 | 214 | 1.6 | 8.0 | 0.00 | 0.00 | 0.00 | 74 | 1010.9 |
| 20260901184508 | 17 | 194 | 4.8 | 8.0 | 0.00 | 0.00 | 0.00 | 74 | 1011.0 |
| 20260901184008 | 17 | 213 | 3.2 | 9.7 | 0.00 | 0.00 | 0.00 | 74 | 1010.9 |
| 20260901183508 | 17 | 197 | 1.6 | 14.5 | 0.00 | 0.00 | 0.00 | 74 | 1010.9 |
| 20260901183032 | 17 | 158 | 4.8 | 14.5 | 0.00 | 0.00 | 0.00 | 73 | 1010.9 |
| 20260901182508 | 18 | 202 | 3.2 | 12.9 | 0.00 | 0.00 | 0.00 | 73 | 1010.8 |
| 20260901182011 | 17 | 200 | 3.2 | 12.9 | 0.00 | 0.00 | 0.00 | 75 | 1010.8 |
| 20260901181520 | 17 | 171 | 3.2 | 8.0 | 0.00 | 0.00 | 0.00 | 73 | 1010.8 |
| 20260901181011 | 17 | 220 | 1.6 | 8.0 | 0.00 | 0.00 | 0.00 | 75 | 1010.8 |
| 20260901180512 | 17 | 140 | 1.6 | 6.4 | 0.00 | 0.00 | 0.00 | 76 | 1010.8 |
| 20260901180028 | 16 | 203 | 3.2 | 6.4 | 0.00 | 0.00 | 0.00 | 77 | 1010.8 |
| 20260901175519 | 16 | 184 | 3.2 | 8.0 | 0.00 | 0.00 | 0.00 | 78 | 1010.7 |
| 20260901175013 | 16 | 210 | 3.2 | 8.0 | 0.00 | 0.00 | 0.00 | 77 | 1010.7 |
| 20260901174530 | 16 | 117 | 3.2 | 6.4 | 0.00 | 0.00 | 0.00 | 77 | 1010.7 |
| 20260901174007 | 17 | 224 | 1.6 | 12.9 | 0.00 | 0.00 | 0.00 | 76 | 1010.6 |
| 20260901173507 | 17 | 124 | 3.2 | 12.9 | 0.00 | 0.00 | 0.00 | 77 | 1010.5 |
| 20260901173008 | 17 | 149 | 3.2 | 11.3 | 0.00 | 0.00 | 0.00 | 75 | 1010.4 |
| 20260901172511 | 17 | 148 | 3.2 | 11.3 | 0.00 | 0.00 | 0.00 | 76 | 1010.4 |
| 20260901172008 | 17 | 191 | 3.2 | 8.0 | 0.00 | 0.00 | 0.00 | 77 | 1010.4 |
| 20260901171518 | 16 | 227 | 3.2 | 8.0 | 0.00 | 0.00 | 0.00 | 79 | 1010.5 |
| 20260901171010 | 16 | 203 | 3.2 | 8.0 | 0.00 | 0.00 | 0.00 | 79 | 1010.4 |
| 20260901170514 | 16 | 195 | 1.6 | 6.4 | 0.00 | 0.00 | 0.00 | 80 | 1010.6 |
| 20260901170023 | 16 | 127 | 1.6 | 6.4 | 0.00 | 0.00 | 0.00 | 81 | 1010.5 |
| 20260901165515 | 16 | 238 | 1.6 | 4.8 | 0.00 | 0.00 | 0.00 | 81 | 1010.6 |
| 20260901165015 | 15 | 148 | 3.2 | 11.3 | 0.00 | 0.00 | 0.00 | 82 | 1010.6 |
| 20260901164531 | 15 | 206 | 3.2 | 11.3 | 0.00 | 0.00 | 0.00 | 82 | 1010.6 |
| 20260901164014 | 15 | 188 | 3.2 | 11.3 | 0.00 | 0.00 | 0.00 | 83 | 1010.6 |
| 20260901163515 | 15 | 193 | 3.2 | 11.3 | 0.00 | 0.00 | 0.00 | 83 | 1010.7 |
| 20260901163031 | 15 | 190 | 0.0 | 6.4 | 0.00 | 0.00 | 0.00 | 84 | 1010.7 |
| 20260901162520 | 15 | 194 | 0.0 | 6.4 | 0.00 | 0.00 | 0.00 | 84 | 1010.7 |
| 20260901162010 | 15 | 144 | 1.6 | 6.4 | 0.00 | 0.00 | 0.00 | 84 | 1010.7 |
| 20260901161515 | 15 | 185 | 0.0 | 8.0 | 0.00 | 0.00 | 0.00 | 85 | 1010.7 |
| 20260901161012 | 15 | 122 | 3.2 | 8.0 | 0.00 | 0.00 | 0.00 | 85 | 1010.7 |
| 20260901160509 | 15 | 215 | 1.6 | 9.7 | 0.00 | 0.00 | 0.00 | 85 | 1010.7 |
| 20260901160021 | 15 | 177 | 1.6 | 9.7 | 0.00 | 0.00 | 0.00 | 85 | 1010.6 |
| 20260901155513 | 15 | 162 | 1.6 | 3.2 | 0.00 | 0.00 | 0.00 | 86 | 1010.7 |
| 20260901155018 | 15 | 203 | 0.0 | 3.2 | 0.00 | 0.00 | 0.00 | 86 | 1010.7 |
| 20260901154526 | 14 | 227 | 0.0 | 0.0 | 0.00 | 0.00 | 0.00 | 87 | 1010.7 |
| 20260901154013 | 14 | 148 | 0.0 | 3.2 | 0.00 | 0.00 | 0.00 | 87 | 1010.8 |
| 20260901153518 | 14 | 214 | 0.0 | 3.2 | 0.00 | 0.00 | 0.00 | 87 | 1010.9 |
| 20260901153036 | 14 | 181 | 0.0 | 3.2 | 0.00 | 0.00 | 0.00 | 88 | 1010.9 |
| 20260901152508 | 14 | 185 | 0.0 | 3.2 | 0.00 | 0.00 | 0.00 | 88 | 1010.9 |
| 20260901152010 | 14 | 192 | 1.6 | 4.8 | 0.00 | 0.00 | 0.00 | 87 | 1010.8 |
| 20260901151513 | 14 | 186 | 0.0 | 4.8 | 0.00 | 0.00 | 0.00 | 88 | 1010.8 |
| 20260901151008 | 14 | 187 | 0.0 | 9.7 | 0.00 | 0.00 | 0.00 | 88 | 1010.9 |
| 20260901150512 | 14 | 171 | 1.6 | 9.7 | 0.00 | 0.00 | 0.00 | 88 | 1010.8 |
| 20260901150019 | 14 | 214 | 0.0 | 6.4 | 0.00 | 0.00 | 0.00 | 88 | 1010.8 |
| 20260901145510 | 14 | 180 | 1.6 | 6.4 | 0.00 | 0.00 | 0.00 | 88 | 1010.7 |
| 20260901145001 | 13 | 196 | 1.6 | 6.4 | 0.00 | 0.00 | 0.00 | 88 | 1010.7 |
| 20260901144507 | 13 | 210 | 1.6 | 4.8 | 0.00 | 0.00 | 0.00 | 88 | 1010.7 |
| 20260901144004 | 13 | 221 | 1.6 | 8.0 | 0.00 | 0.00 | 0.00 | 88 | 1010.6 |
| 20260901143503 | 13 | 183 | 3.2 | 8.0 | 0.00 | 0.00 | 0.00 | 89 | 1010.6 |
| 20260901143005 | 13 | 188 | 0.0 | 3.2 | 0.00 | 0.00 | 0.00 | 89 | 1010.6 |
| 20260901142508 | 13 | 186 | 0.0 | 4.8 | 0.00 | 0.00 | 0.00 | 89 | 1010.6 |
| 20260901142004 | 13 | 185 | 1.6 | 4.8 | 0.00 | 0.00 | 0.00 | 89 | 1010.6 |
| 20260901141512 | 13 | 194 | 1.6 | 4.8 | 0.00 | 0.00 | 0.00 | 89 | 1010.5 |
| 20260901141008 | 13 | 205 | 1.6 | 3.2 | 0.00 | 0.00 | 0.00 | 89 | 1010.5 |
| 20260901140508 | 13 | 227 | 0.0 | 4.8 | 0.00 | 0.00 | 0.00 | 90 | 1010.4 |
| 20260901140017 | 13 | 229 | 0.0 | 4.8 | 0.00 | 0.00 | 0.00 | 90 | 1010.3 |
| 20260901135508 | 13 | 232 | 0.0 | 4.8 | 0.00 | 0.00 | 0.00 | 90 | 1010.3 |
| 20260901135012 | 13 | 215 | 0.0 | 6.4 | 0.00 | 0.00 | 0.00 | 90 | 1010.3 |
| 20260901134522 | 13 | 140 | 0.0 | 6.4 | 0.00 | 0.00 | 0.00 | 90 | 1010.3 |
| 20260901134011 | 13 | 218 | 1.6 | 6.4 | 0.00 | 0.00 | 0.00 | 90 | 1010.3 |
| 20260901133503 | 13 | 205 | 0.0 | 0.0 | 0.00 | 0.00 | 0.00 | 89 | 1010.3 |
| 20260901133007 | 13 | 213 | 0.0 | 6.4 | 0.00 | 0.00 | 0.00 | 89 | 1010.3 |
| 20260901132504 | 13 | 210 | 0.0 | 6.4 | 0.00 | 0.00 | 0.00 | 89 | 1010.3 |
| 20260901132004 | 13 | 202 | 0.0 | 4.8 | 0.00 | 0.00 | 0.00 | 89 | 1010.3 |
| 20260901131509 | 13 | 196 | 0.0 | 1.6 | 0.00 | 0.00 | 0.00 | 89 | 1010.3 |
| 20260901131004 | 13 | 186 | 0.0 | 0.0 | 0.00 | 0.00 | 0.00 | 89 | 1010.3 |
| 20260901130508 | 13 | 215 | 0.0 | 0.0 | 0.00 | 0.00 | 0.00 | 88 | 1010.2 |
| 20260901130011 | 13 | 215 | 0.0 | 0.0 | 0.00 | 0.00 | 0.00 | 88 | 1010.2 |
| 20260901125507 | 12 | 215 | 0.0 | 3.2 | 0.00 | 0.00 | 0.00 | 88 | 1010.1 |
| 20260901125009 | 12 | 224 | 0.0 | 3.2 | 0.00 | 0.00 | 0.00 | 88 | 1010.1 |
| 20260901124520 | 12 | 164 | 0.0 | 0.0 | 0.00 | 0.00 | 0.00 | 87 | 1010.1 |
| 20260901124012 | 12 | 5 | 0.0 | 0.0 | 0.00 | 0.00 | 0.00 | 87 | 1010.1 |
| 20260901123514 | 12 | 5 | 0.0 | 0.0 | 0.00 | 0.00 | 0.00 | 86 | 1010.0 |
| 20260901123024 | 12 | 5 | 0.0 | 0.0 | 0.00 | 0.00 | 0.00 | 86 | 1010.0 |
| 20260901122516 | 12 | 5 | 0.0 | 0.0 | 0.00 | 0.00 | 0.00 | 86 | 1009.9 |
| 20260901122003 | 12 | 5 | 0.0 | 0.0 | 0.00 | 0.00 | 0.00 | 86 | 1010.0 |
| 20260901121507 | 12 | 5 | 0.0 | 0.0 | 0.00 | 0.00 | 0.00 | 86 | 1010.0 |
| 20260901121006 | 12 | 5 | 0.0 | 0.0 | 0.00 | 0.00 | 0.00 | 86 | 1009.9 |
| 20260901120507 | 12 | 5 | 0.0 | 0.0 | 0.00 | 0.00 | 0.00 | 86 | 1009.9 |
| 20260901120015 | 12 | 5 | 0.0 | 0.0 | 0.00 | 0.00 | 0.00 | 86 | 1009.9 |
| 20260901115508 | 12 | 9 | 0.0 | 0.0 | 0.00 | 0.00 | 0.00 | 86 | 1009.8 |
| 20260901115013 | 12 | 5 | 0.0 | 0.0 | 0.00 | 0.00 | 0.00 | 86 | 1009.8 |
| 20260901114515 | 12 | 5 | 0.0 | 0.0 | 0.00 | 0.00 | 0.00 | 86 | 1009.7 |
| 20260901114012 | 12 | 5 | 0.0 | 0.0 | 0.00 | 0.00 | 0.00 | 86 | 1009.7 |
| 20260901113510 | 12 | 5 | 0.0 | 0.0 | 0.00 | 0.00 | 0.00 | 86 | 1009.6 |
| 20260901113025 | 12 | 5 | 0.0 | 0.0 | 0.00 | 0.00 | 0.00 | 87 | 1009.6 |
| 20260901112511 | 12 | 5 | 0.0 | 0.0 | 0.00 | 0.00 | 0.00 | 86 | 1009.6 |
| 20260901112015 | 12 | 5 | 0.0 | 0.0 | 0.00 | 0.00 | 0.00 | 86 | 1009.7 |
| 20260901111529 | 12 | 5 | 0.0 | 0.0 | 0.00 | 0.00 | 0.00 | 86 | 1009.6 |
| 20260901111019 | 12 | 5 | 0.0 | 0.0 | 0.00 | 0.00 | 0.00 | 86 | 1009.6 |
| 20260901110503 | 12 | 5 | 0.0 | 0.0 | 0.00 | 0.00 | 0.00 | 85 | 1009.6 |
| 20260901110010 | 12 | 5 | 0.0 | 0.0 | 0.00 | 0.00 | 0.00 | 85 | 1009.6 |
| 20260901105504 | 12 | 5 | 0.0 | 0.0 | 0.00 | 0.00 | 0.00 | 86 | 1009.6 |
| 20260901105010 | 12 | 5 | 0.0 | 0.0 | 0.00 | 0.00 | 0.00 | 86 | 1009.6 |
| 20260901104514 | 12 | 5 | 0.0 | 0.0 | 0.00 | 0.00 | 0.00 | 86 | 1009.6 |
| 20260901104008 | 12 | 5 | 0.0 | 0.0 | 0.00 | 0.00 | 0.00 | 86 | 1009.6 |
| 20260901103511 | 12 | 5 | 0.0 | 0.0 | 0.00 | 0.00 | 0.00 | 86 | 1009.6 |
| 20260901103017 | 12 | 5 | 0.0 | 0.0 | 0.00 | 0.00 | 0.00 | 86 | 1009.5 |
| 20260901102514 | 12 | 5 | 0.0 | 0.0 | 0.00 | 0.00 | 0.00 | 85 | 1009.5 |
| 20260901102014 | 13 | 5 | 0.0 | 0.0 | 0.00 | 0.00 | 0.00 | 85 | 1009.5 |
| 20260901101527 | 12 | 5 | 0.0 | 0.0 | 0.00 | 0.00 | 0.00 | 86 | 1009.5 |
| 20260901101018 | 12 | 5 | 0.0 | 0.0 | 0.00 | 0.00 | 0.00 | 86 | 1009.5 |
| 20260901100514 | 12 | 5 | 0.0 | 0.0 | 0.00 | 0.00 | 0.00 | 86 | 1009.5 |
| 20260901100027 | 13 | 5 | 0.0 | 0.0 | 0.00 | 0.00 | 0.00 | 85 | 1009.3 |
| 20260901095515 | 13 | 5 | 0.0 | 0.0 | 0.00 | 0.00 | 0.00 | 86 | 1009.3 |
| 20260901095014 | 12 | 5 | 0.0 | 0.0 | 0.00 | 0.00 | 0.00 | 85 | 1009.3 |
| 20260901094521 | 13 | 5 | 0.0 | 0.0 | 0.00 | 0.00 | 0.00 | 85 | 1009.3 |
| 20260901094007 | 13 | 5 | 0.0 | 0.0 | 0.00 | 0.00 | 0.00 | 84 | 1009.2 |
| 20260901093507 | 13 | 5 | 0.0 | 0.0 | 0.00 | 0.00 | 0.00 | 84 | 1009.2 |
| 20260901093018 | 13 | 5 | 0.0 | 0.0 | 0.00 | 0.00 | 0.00 | 84 | 1009.3 |
| 20260901092512 | 13 | 5 | 0.0 | 0.0 | 0.00 | 0.00 | 0.00 | 84 | 1009.3 |
| 20260901092015 | 13 | 5 | 0.0 | 0.0 | 0.00 | 0.00 | 0.00 | 84 | 1009.2 |
| 20260901091530 | 13 | 5 | 0.0 | 0.0 | 0.00 | 0.00 | 0.00 | 83 | 1009.2 |
| 20260901091011 | 13 | 5 | 0.0 | 0.0 | 0.00 | 0.00 | 0.00 | 83 | 1009.2 |
| 20260901090511 | 13 | 5 | 0.0 | 0.0 | 0.00 | 0.00 | 0.00 | 82 | 1009.2 |
| 20260901090027 | 13 | 5 | 0.0 | 0.0 | 0.00 | 0.00 | 0.00 | 83 | 1009.2 |
| 20260901085519 | 13 | 5 | 0.0 | 0.0 | 0.00 | 0.00 | 0.00 | 82 | 1009.2 |
| 20260901085015 | 13 | 5 | 0.0 | 0.0 | 0.00 | 0.00 | 0.00 | 81 | 1009.2 |
| 20260901084532 | 14 | 5 | 0.0 | 0.0 | 0.00 | 0.00 | 0.00 | 81 | 1009.1 |
| 20260901084020 | 14 | 5 | 0.0 | 0.0 | 0.00 | 0.00 | 0.00 | 81 | 1009.0 |
| 20260901083519 | 14 | 5 | 0.0 | 0.0 | 0.00 | 0.00 | 0.00 | 80 | 1009.1 |
| 20260901083014 | 14 | 5 | 0.0 | 0.0 | 0.00 | 0.00 | 0.00 | 80 | 1009.0 |
| 20260901082511 | 15 | 5 | 0.0 | 0.0 | 0.00 | 0.00 | 0.00 | 79 | 1009.1 |
| 20260901082011 | 15 | 5 | 0.0 | 0.0 | 0.00 | 0.00 | 0.00 | 79 | 1009.0 |
| 20260901081518 | 15 | 5 | 0.0 | 0.0 | 0.00 | 0.00 | 0.00 | 79 | 1009.0 |
| 20260901081011 | 15 | 5 | 0.0 | 0.0 | 0.00 | 0.00 | 0.00 | 79 | 1009.0 |
| 20260901080514 | 15 | 5 | 0.0 | 0.0 | 0.00 | 0.00 | 0.00 | 78 | 1008.9 |
| 20260901080025 | 15 | 5 | 0.0 | 0.0 | 0.00 | 0.00 | 0.00 | 76 | 1008.9 |
| 20260901075504 | 16 | 5 | 0.0 | 0.0 | 0.00 | 0.00 | 0.00 | 75 | 1008.9 |
| 20260901075004 | 16 | 5 | 0.0 | 0.0 | 0.00 | 0.00 | 0.00 | 75 | 1008.9 |
| 20260901074509 | 16 | 30 | 0.0 | 0.0 | 0.00 | 0.00 | 0.00 | 75 | 1008.8 |
| 20260901074003 | 16 | 30 | 0.0 | 0.0 | 0.00 | 0.00 | 0.00 | 75 | 1008.8 |
| 20260901073507 | 16 | 30 | 0.0 | 0.0 | 0.00 | 0.00 | 0.00 | 75 | 1008.8 |
| 20260901073019 | 16 | 30 | 0.0 | 3.2 | 0.00 | 0.00 | 0.00 | 75 | 1008.8 |
| 20260901072510 | 16 | 30 | 0.0 | 3.2 | 0.00 | 0.00 | 0.00 | 75 | 1008.9 |
| 20260901072011 | 16 | 34 | 0.0 | 3.2 | 0.00 | 0.00 | 0.00 | 75 | 1008.9 |
| 20260901071515 | 16 | 44 | 0.0 | 0.0 | 0.00 | 0.00 | 0.00 | 74 | 1008.9 |
| 20260901071014 | 16 | 46 | 0.0 | 1.6 | 0.00 | 0.00 | 0.00 | 74 | 1008.8 |
| 20260901070512 | 16 | 62 | 1.6 | 1.6 | 0.00 | 0.00 | 0.00 | 74 | 1008.8 |
| 20260901070007 | 16 | 69 | 0.0 | 3.2 | 0.00 | 0.00 | 0.00 | 74 | 1008.8 |
| 20260901065506 | 16 | 69 | 0.0 | 3.2 | 0.00 | 0.00 | 0.00 | 74 | 1008.8 |
| 20260901065004 | 16 | 69 | 0.0 | 3.2 | 0.00 | 0.00 | 0.00 | 74 | 1008.8 |
| 20260901064509 | 16 | 69 | 0.0 | 1.6 | 0.00 | 0.00 | 0.00 | 74 | 1008.7 |
| 20260901064004 | 16 | 11 | 0.0 | 0.0 | 0.00 | 0.00 | 0.00 | 74 | 1008.8 |
| 20260901063503 | 16 | 17 | 0.0 | 0.0 | 0.00 | 0.00 | 0.00 | 73 | 1008.8 |
| 20260901063007 | 16 | 19 | 0.0 | 0.0 | 0.00 | 0.00 | 0.00 | 73 | 1008.9 |
| 20260901062508 | 16 | 19 | 0.0 | 0.0 | 0.00 | 0.00 | 0.00 | 73 | 1008.8 |
| 20260901062008 | 17 | 19 | 0.0 | 0.0 | 0.00 | 0.00 | 0.00 | 73 | 1008.8 |
| 20260901061514 | 17 | 15 | 0.0 | 0.0 | 0.00 | 0.00 | 0.00 | 72 | 1008.9 |
| 20260901061012 | 17 | 15 | 0.0 | 0.0 | 0.00 | 0.00 | 0.00 | 72 | 1008.9 |
| 20260901060509 | 17 | 18 | 0.0 | 3.2 | 0.00 | 0.00 | 0.00 | 72 | 1008.9 |
| 20260901060022 | 17 | 5 | 0.0 | 3.2 | 0.00 | 0.00 | 0.00 | 71 | 1009.0 |
| 20260901055513 | 17 | 360 | 0.0 | 3.2 | 0.00 | 0.00 | 0.00 | 71 | 1008.9 |
| 20260901055012 | 17 | 352 | 1.6 | 4.8 | 0.00 | 0.00 | 0.00 | 70 | 1009.0 |
| 20260901054504 | 17 | 25 | 1.6 | 4.8 | 0.00 | 0.00 | 0.00 | 70 | 1009.0 |
| 20260901054004 | 17 | 30 | 0.0 | 3.2 | 0.00 | 0.00 | 0.00 | 70 | 1009.0 |
| 20260901053504 | 17 | 28 | 0.0 | 4.8 | 0.00 | 0.00 | 0.00 | 70 | 1009.0 |
| 20260901053012 | 17 | 53 | 1.6 | 4.8 | 0.00 | 0.00 | 0.00 | 70 | 1009.1 |
| 20260901052505 | 17 | 46 | 0.0 | 3.2 | 0.00 | 0.00 | 0.00 | 69 | 1009.1 |
| 20260901052007 | 17 | 49 | 0.0 | 4.8 | 0.00 | 0.00 | 0.00 | 69 | 1009.1 |
| 20260901051513 | 17 | 5 | 1.6 | 4.8 | 0.00 | 0.00 | 0.00 | 69 | 1009.1 |
| 20260901051008 | 17 | 345 | 0.0 | 4.8 | 0.00 | 0.00 | 0.00 | 68 | 1009.2 |
| 20260901050507 | 17 | 351 | 1.6 | 4.8 | 0.00 | 0.00 | 0.00 | 68 | 1009.2 |
| 20260901050016 | 17 | 352 | 0.0 | 4.8 | 0.00 | 0.00 | 0.00 | 68 | 1009.1 |
| 20260901045513 | 17 | 49 | 1.6 | 3.2 | 0.00 | 0.00 | 0.00 | 68 | 1009.1 |
| 20260901045012 | 17 | 5 | 1.6 | 3.2 | 0.00 | 0.00 | 0.00 | 68 | 1009.1 |
| 20260901044523 | 17 | 11 | 1.6 | 6.4 | 0.00 | 0.00 | 0.00 | 68 | 1009.2 |